Starlink 31462

operational
NORAD ID: 59466 Int'l Des: 2024-068 Owner: SPXS Country: US Constellation: starlink
LEOCIRCULAR

Starlink 31462について

説明を読み込み中...

リアルタイム位置

3D地球を読み込み中...

次回通過

高度履歴

Altitude vs Time

uPlot chart will show altitude changes over time

軌道要素

1 59466U 24068M 25350.71455400 .00003996 00000-0 15468-3 0 9995
2 59466 42.9996 143.0214 0001015 260.0773 99.9964 15.27574261 95839
Epoch: Dec 16, 2025 • Age: 29 hours

現在のステータス

高度 495.7 km
速度 7.62 km/s
衛星直下点 -43.08°S, 15.26°W
打ち上げ日 Apr 10, 2024
運用期間 1.6 years
タイプ internet

技術仕様

分類 Payload
質量 730.00 kg
乾燥質量 700.00 kg
総質量 730.00 kg
長さ 0.30 m
直径 4.10 m
スパン 29.00 m
形状 Box + pan
製造者 SPXS
バスタイプ Starlink V2M
フェーズステータス In Orbit
所有者/国 SPXS/US

大規模コンステレーション

Loading constellations...